Weather observations for the past three days for
Frankfort, Frankfort Dow Memorial Field Airport
Imperial (Metric)
Date Time (edt) Wind (mph) Vis. (mi.) Weather Sky Cond. Temperature (ºF) Relative Humidity Wind Chill (°F) Heat Index (°F) Pressure Precipitation (in)
Air Dwpt 6 hour altimeter (in) sea level (mb) 1 hr 3 hr 6 hr
Max. Min.
19 11:35 W 10 10.00 Fair CLR 72.7 62.1 69% 30.17 0.0
19 11:15 SW 9 G 17 10.00 Fair CLR 72.9 62.2 69% 30.17 0.0
19 10:55 SW 7 10.00 Fair CLR 72.5 62.2 70% 30.18 0.0
19 10:35 SW 6 10.00 Fair CLR 72 62.1 71% 30.18 0.0
19 10:15 SW 9 10.00 Fair CLR 71.6 61.5 71% 30.18 0.0
19 09:55 SW 7 10.00 Fair CLR 71.6 61.9 72% 30.18 0.0
19 09:35 S 7 10.00 Fair CLR 71.2 61.7 72% 30.18 0.0
19 09:15 SW 6 10.00 Fair CLR 69.8 60.8 73% 30.18 0.0
19 08:55 S 3 10.00 Fair CLR 68.5 59.9 74% 30.18 0.0
19 08:35 Calm 10.00 Fair CLR 66 58.6 77% 30.18 0.0
19 08:15 Calm 10.00 Fair CLR 62.4 56.8 82% 30.18 0.0
19 07:55 Calm 10.00 Fair CLR 59.2 55.2 59.2 50 87% 30.18 0.0
19 07:35 Calm 10.00 Fair CLR 55.6 52 88% 30.18 0.0
19 07:15 Calm 10.00 Fair CLR 52.7 48.9 87% 30.18 0.0
19 06:55 Calm 10.00 Fair CLR 51.4 47.5 86% 30.17 0.0
19 06:35 Calm 10.00 Fair CLR 50.7 46.6 86% 30.17 0.0
19 06:15 Calm 10.00 Fair CLR 50.5 46.9 88% 30.17 0.0
19 05:55 Calm 10.00 Fair CLR 50.2 46.6 88% 30.17 0.0
19 05:35 Calm 10.00 Fair CLR 50.2 46.6 88% 30.17 0.0
19 05:15 Calm 10.00 Fair CLR 50.5 46.8 87% 30.16 0.0
19 04:55 Calm 10.00 Fair CLR 50.9 47.3 88% 30.16 0.0
19 04:35 Calm 10.00 Fair CLR 50.9 47.1 87% 30.15 0.0
19 04:15 Calm 10.00 Fair CLR 51.3 47.5 87% 30.15 0.0
19 03:55 Calm 10.00 Fair CLR 51.1 47.5 88% 30.15 0.0
19 03:35 Calm 10.00 Fair CLR 50.9 47.3 88% 30.16 0.0
19 03:15 Calm 10.00 Fair CLR 51.1 47.3 87% 30.15 0.0
19 02:55 Calm 10.00 Fair CLR 51.4 47.7 87% 30.16 0.0
19 02:35 Calm 10.00 Fair CLR 51.8 47.7 86% 30.17 0.0
19 02:15 Calm 10.00 Fair CLR 51.8 47.7 86% 30.17 0.0
19 01:55 Calm 10.00 Fair CLR 52.7 48.4 71.1 52 85% 30.17 0.0
19 01:35 Calm 10.00 Fair CLR 52 47.7 85% 30.17 0.0
19 01:15 Calm 10.00 Fair CLR 52.9 48.6 85% 30.17 0.0
19 00:55 Calm 10.00 Fair CLR 52.3 47.7 84% 30.17 0.0
19 00:35 Calm 10.00 Fair CLR 53.2 48.2 83% 30.17 0.0
19 00:15 Calm 10.00 Fair CLR 53.8 49.1 84% 30.17 0.0
18 23:55 Calm 10.00 Fair CLR 54.1 49.1 83% 30.16 0.0
18 23:35 Calm 10.00 Fair CLR 54.5 49.5 83% 30.16 0.0
18 23:15 Calm 10.00 Fair CLR 55.4 49.8 82% 30.17 0.0
18 22:55 Calm 10.00 Fair CLR 55.4 49.6 81% 30.17 0.0
18 22:35 Calm 10.00 Fair CLR 56.8 50.5 80% 30.17 0.0
18 22:15 Calm 10.00 Fair CLR 55.8 49.8 81% 30.16 0.0
18 21:55 Calm 10.00 Fair CLR 57.6 50.9 79% 30.16 0.0
18 21:35 Calm 10.00 Fair CLR 59.9 52.2 76% 30.16 0.0
18 21:15 Calm 10.00 Fair CLR 62.4 52.3 70% 30.15 0.0
18 20:55 Calm 10.00 Fair CLR 64.9 51.8 63% 30.16 0.0
18 20:35 Calm 10.00 Fair CLR 67.6 52 57% 30.16 0.0
18 20:15 Calm 10.00 Fair CLR 70 49.5 48% 30.16 0.0
18 19:55 Calm 10.00 Fair CLR 71.1 47.5 73.2 70.2 43% 30.17 0.0
18 19:35 Calm 10.00 Fair CLR 70.3 47.5 44% 30.17 0.0
18 19:15 W 3 10.00 Fair CLR 71.1 46.6 42% 30.17 0.0
18 18:55 NW 3 10.00 Fair CLR 71.1 46.9 42% 30.17 0.0
18 18:35 NW 5 10.00 Fair CLR 71.4 46.9 42% 30.17 0.0
18 18:15 NW 7 10.00 Fair CLR 71.6 47.1 42% 30.18 0.0
18 17:55 N 7 10.00 Fair CLR 72.5 47.3 41% 30.18 0.0
18 17:35 NW 8 10.00 Fair CLR 71.6 48 43% 30.18 0.0
18 17:15 NW 10 10.00 Fair CLR 72 48.9 44% 30.18 0.0
18 16:55 N 7 10.00 Fair CLR 72.1 49.5 45% 30.18 0.0
18 16:35 NW 7 10.00 Fair CLR 72.7 50.2 45% 30.19 0.0
18 16:15 N 6 10.00 Fair CLR 72.5 50.5 46% 30.18 0.0
18 15:55 N 8 10.00 Fair CLR 72.5 50.2 45% 30.18 0.0
18 15:35 NW 7 10.00 Fair CLR 72.3 50.9 47% 30.18 0.0
18 15:15 N 10 10.00 Fair CLR 71.6 50.5 48% 30.18 0.0
18 14:55 NW 8 10.00 Fair CLR 71.8 49.1 45% 30.18 0.0
18 14:35 N 8 10.00 Fair CLR 71.8 49.5 45% 30.18 0.0
18 14:15 N 12 10.00 Fair CLR 72.7 49.6 44% 30.18 0.0
18 13:55 N 7 10.00 Fair CLR 71.2 48.9 72.7 64.4 45% 30.19 0.0
18 13:35 NW 9 10.00 Fair CLR 71.6 49.3 45% 30.18 0.0
18 13:15 NW 7 10.00 Fair CLR 72 48.9 44% 30.18 0.0
18 12:55 N 6 10.00 Fair CLR 70.9 49.1 46% 30.19 0.0
18 12:35 N 7 10.00 Fair CLR 70.9 49.5 47% 30.18 0.0
18 12:15 N 6 10.00 Fair CLR 70.7 49.6 47% 30.18 0.0
18 11:55 NW 5 10.00 Fair CLR 70.5 51.3 51% 30.19 0.0
18 11:35 N 6 10.00 Partly Cloudy SCT031 69.6 50.2 50% 30.19 0.0
18 11:15 N 5 10.00 Partly Cloudy SCT031 69.8 51.4 52% 30.18 0.0
18 10:55 N 5 10.00 Fair CLR 69.4 51.4 53% 30.18 0.0
18 10:35 N 8 10.00 Fair CLR 67.6 51.4 56% 30.18 0.0
18 10:15 N 5 10.00 Fair CLR 68.4 52.2 56% 30.18 0.0
18 09:55 N 7 10.00 Partly Cloudy SCT028 SCT034 SCT049 67.1 51.8 58% 30.18 0.0
18 09:35 N 8 10.00 Partly Cloudy SCT028 SCT034 SCT049 67.5 52.7 59% 30.18 0.0
18 09:15 NW 6 10.00 Fair CLR 67.1 52.3 59% 30.18 0.0
18 08:55 NW 6 10.00 Fair CLR 65.5 52.3 63% 30.18 0.0
18 08:35 N 5 10.00 Fair CLR 66 52.2 61% 30.18 0.0
18 08:15 N 6 10.00 Fair CLR 64.9 52.5 64% 30.17 0.0
18 07:55 N 5 10.00 Fair CLR 64.2 52.5 64.2 59.5 66% 30.17 0.0
18 07:35 NW 5 10.00 Fair CLR 63 52.3 68% 30.16 0.0
18 07:15 Calm 10.00 Fair CLR 60.4 51.8 73% 30.15 0.0
18 06:55 Calm 10.00 Fair CLR 59.9 51.3 73% 30.15 0.0
18 06:35 N 3 10.00 Fair CLR 59.9 51.1 73% 30.15 0.0
18 06:15 Calm 10.00 Fair CLR 60.6 51.1 71% 30.15 0.0
18 05:55 Calm 10.00 Fair CLR 60.1 50.9 72% 30.15 0.0
18 05:35 N 3 10.00 Fair CLR 61.2 51.1 70% 30.14 0.0
18 04:46 N 5 10.00 Partly Cloudy SCT034 61.2 51.1 70% 30.13 0.0
17 23:15 N 10 G 16 10.00 Mostly Cloudy SCT041 SCT048 BKN060 64.4 50.9 62% 30.09 0.0
17 22:55 N 9 G 17 10.00 Mostly Cloudy SCT032 BKN043 BKN060 64.4 51.1 62% 30.09 0.0
17 22:35 N 8 G 18 10.00 Mostly Cloudy SCT030 SCT038 BKN044 64.2 50.9 62% 30.08 0.0
17 22:15 N 12 G 22 10.00 Mostly Cloudy SCT027 SCT033 BKN041 64.4 51.4 63% 30.08 0.0
17 21:55 N 10 G 16 10.00 Mostly Cloudy SCT027 BKN034 BKN040 64.4 51.8 64% 30.08 0.0
17 21:35 N 12 G 17 10.00 Mostly Cloudy BKN029 BKN037 64 51.8 65% 30.07 0.0
17 21:15 N 12 G 17 10.00 Mostly Cloudy BKN028 64 51.6 64% 30.06 0.0
17 20:55 N 10 G 21 10.00 Partly Cloudy SCT033 SCT070 64 51.3 63% 30.07 0.0
17 20:35 N 13 G 23 10.00 Overcast SCT025 SCT030 OVC070 64.8 52.2 64% 30.06 0.0
17 20:15 N 8 G 16 10.00 Overcast SCT024 SCT030 OVC070 65.8 53.6 65% 30.06 0.0
17 19:55 N 8 G 18 10.00 Overcast SCT029 SCT038 OVC070 66.6 53.8 72.5 66.6 64% 30.05 0.0
17 19:35 N 12 G 16 10.00 Mostly Cloudy SCT029 SCT035 BKN046 68.2 53.6 60% 30.04 0.0
17 19:15 N 9 G 17 10.00 Overcast SCT025 SCT033 OVC090 67.8 54.7 63% 30.04 0.0
17 18:55 NW 9 G 20 10.00 Overcast SCT022 SCT028 OVC085 68.2 56.1 66% 30.03 0.0
17 18:35 NW 9 G 20 10.00 Mostly Cloudy SCT026 SCT035 BKN085 68.9 55.4 62% 30.02 0.0
17 18:15 N 13 G 25 10.00 Partly Cloudy SCT028 SCT033 SCT038 69.3 55 61% 30.02 0.0
17 17:55 NW 14 G 22 10.00 Mostly Cloudy SCT032 SCT060 BKN070 71.2 55.2 57% 30.02 0.0
17 17:35 N 7 G 16 10.00 Overcast SCT026 SCT033 OVC060 69.1 55.6 62% 30.02 0.0
17 17:15 N 7 G 17 10.00 Mostly Cloudy SCT031 SCT043 BKN060 70.5 54.9 58% 30.02 0.0
17 16:55 NW 9 G 16 10.00 Mostly Cloudy SCT029 BKN050 BKN070 69.1 54.1 59% 30.02 0.0
17 16:35 N 7 10.00 Partly Cloudy SCT031 71.4 54.7 56% 30.02 0.0
17 16:15 NW 10 G 16 10.00 Partly Cloudy SCT031 SCT070 72 54.1 54% 30.01 0.0
17 15:55 NW 13 G 18 10.00 Partly Cloudy SCT070 71.4 53.1 52% 30.01 0.0
17 15:35 N 8 10.00 Fair CLR 72.1 54.1 53% 30 0.0
17 15:15 NW 12 G 21 10.00 Partly Cloudy SCT030 SCT037 SCT060 71.2 53.4 54% 30 0.0
17 14:55 N 9 G 17 10.00 Mostly Cloudy SCT030 SCT037 BKN060 70.3 55.2 59% 29.99 0.0
17 14:35 N 12 G 21 10.00 Partly Cloudy SCT030 SCT037 SCT100 71.8 53.8 53% 29.98 0.0
17 14:15 NW 9 G 21 10.00 Partly Cloudy SCT026 SCT032 69.4 53.6 57% 29.98 0.0
17 13:55 NW 14 G 21 10.00 Partly Cloudy SCT025 SCT032 SCT038 72.3 54.5 72.7 66 54% 29.97 0.0
17 13:35 NW 12 G 20 10.00 Partly Cloudy SCT025 SCT032 SCT038 70.7 55.8 59% 29.97 0.0
17 13:15 NW 13 G 18 10.00 Mostly Cloudy BKN026 BKN034 71.2 55.9 59% 29.97 0.0
17 12:55 N 9 G 18 10.00 Mostly Cloudy BKN024 BKN031 72 56.5 58% 29.96 0.0
17 12:35 N 12 G 23 10.00 Partly Cloudy SCT022 SCT028 SCT033 71.8 56.7 59% 29.95 0.0
17 12:15 N 8 G 18 10.00 Mostly Cloudy BKN022 BKN027 70.7 57.2 62% 29.95 0.0
17 11:55 N 6 G 16 10.00 Mostly Cloudy BKN022 BKN027 70.7 57.4 63% 29.95 0.0
17 11:35 NW 10 G 17 10.00 Partly Cloudy SCT020 SCT027 SCT032 70.9 57.7 63% 29.94 0.0
17 11:15 N 10 G 17 10.00 Partly Cloudy SCT022 72 57.9 61% 29.94 0.0
17 10:55 NW 9 G 17 10.00 Partly Cloudy SCT022 SCT065 SCT075 71.6 58.1 63% 29.93 0.0
17 10:35 NW 10 10.00 Mostly Cloudy BKN065 BKN100 70.2 58.3 66% 29.93 0.0
17 10:15 NW 10 10.00 Mostly Cloudy SCT033 BKN070 BKN100 69.3 58.5 69% 29.93 0.0
17 09:55 NW 8 10.00 Mostly Cloudy SCT035 BKN070 BKN080 70.3 60.1 70% 29.93 0.0
17 09:35 NW 5 10.00 Partly Cloudy SCT044 SCT070 SCT110 70.3 58.6 67% 29.92 0.0
17 09:15 NW 9 10.00 Partly Cloudy SCT075 SCT100 70.7 57.2 62% 29.92 0.0
17 08:35 NW 6 10.00 Mostly Cloudy SCT042 BKN100 70.3 59.5 69% 29.91 0.0
17 08:15 Calm 10.00 Mostly Cloudy SCT042 SCT080 BKN100 68.2 61.9 80% 29.9 0.0
17 07:55 Calm 10.00 Partly Cloudy SCT040 SCT049 SCT120 65.7 60.8 68.4 59.4 84% 29.91 0.0
17 07:35 Calm 10.00 Mostly Cloudy SCT040 BKN110 63.5 59.9 88% 29.9 0.0
17 07:15 Calm 10.00 Partly Cloudy SCT120 61.7 58.5 89% 29.89 0.0
17 06:55 Calm 10.00 Fair CLR 60.1 57 90% 29.89 0.0
17 06:35 Calm 10.00 Fair CLR 59.7 56.5 89% 29.88 0.0
17 06:15 Calm 10.00 Fair CLR 60.3 57.2 90% 29.87 0.0
17 05:55 Calm 10.00 Fair CLR 60.3 57 89% 29.86 0.0
17 05:35 Calm 10.00 Fair CLR 60.4 57.2 89% 29.86 0.0
17 05:15 Calm 10.00 Fair CLR 61.9 58.5 89% 29.86 0.0
17 04:55 Calm 7.00 Fair CLR 62.1 58.3 88% 29.86 0.0
17 04:35 Calm 10.00 Fair CLR 63.3 59.2 86% 29.85 0.0
17 04:15 Calm 10.00 Fair CLR 64.4 59.9 85% 29.86 0.0
17 03:55 Calm 10.00 Fair CLR 66.9 61 81% 29.85 0.0
17 03:35 Calm 10.00 Fair CLR 67.1 62.8 86% 29.85 0.0
17 03:15 E 3 7.00 Partly Cloudy SCT010 65.7 62.6 90% 29.85 0.0
17 02:55 Calm 7.00 Fair CLR 66.2 63 89% 29.85 0.0
17 02:35 Calm 7.00 Partly Cloudy SCT005 SCT010 67.3 63.7 88% 29.85 0.0
17 02:15 Calm 10.00 Mostly Cloudy BKN007 BKN010 BKN100 68.4 64.8 88% 29.85 0.0
17 01:55 Calm 10.00 Mostly Cloudy SCT010 BKN090 68 63.9 73.9 68 87% 29.86 0.0
17 01:35 Calm 10.00 Overcast BKN012 OVC090 68.9 64.8 87% 29.86 0.0
17 01:15 Calm 10.00 Overcast SCT010 OVC080 69.3 64.6 85% 29.85 0.0
17 00:55 Calm 10.00 Overcast BKN080 OVC090 70 64.9 84% 29.85 0.0
17 00:35 Calm 10.00 Overcast BKN080 OVC090 69.3 64 84% 29.85 0.0
17 00:15 Calm 10.00 Partly Cloudy SCT090 SCT110 70.2 64.4 82% 29.85 0.0
16 23:55 Calm 10.00 Mostly Cloudy BKN100 70.9 64.4 80% 29.84 0.0
16 23:35 Calm 10.00 Overcast SCT070 BKN090 OVC110 70.9 63.9 79% 29.84 0.0
16 23:15 Calm 10.00 Overcast BKN070 OVC080 71.1 63.3 77% 29.84 0.0
16 22:55 Calm 10.00 Overcast BKN060 OVC080 71.4 62.6 74% 29.84 0.0
16 22:35 Calm 10.00 Overcast BKN060 OVC080 71.1 64.2 79% 29.84 0.0
16 22:15 W 5 10.00 Overcast BKN060 OVC080 70.9 64.4 80% 29.84 0.0
16 21:55 Calm 10.00 Overcast BKN065 OVC075 70.7 63.9 79% 29.83 0.0
16 21:35 Calm 10.00 Overcast BKN070 OVC100 70 63.5 80% 29.82 0.0
16 21:15 Calm 10.00 Partly Cloudy SCT080 SCT100 69.3 63 80% 29.82 0.0
16 20:55 Calm 10.00 Fair CLR 70.3 63.3 79% 29.81 0.0
16 20:35 Calm 10.00 Fair CLR 72.7 63.1 72% 29.8 0.0
16 20:15 Calm 10.00 Fair CLR 73.4 62.1 68% 29.8 0.0
16 19:55 Calm 10.00 Fair CLR 74.3 62.1 77 73.8 66% 29.8 0.0
16 19:35 Calm 10.00 Fair CLR 73.8 62.1 67% 29.81 0.0
16 19:15 Calm 10.00 Fair CLR 75.2 61.7 63% 77 29.81 0.0
16 18:55 Calm 10.00 Fair CLR 74.5 61.3 64% 29.81 0.0
16 18:35 W 5 10.00 Fair CLR 74.8 61 62% 29.82 0.0
16 18:15 W 6 10.00 Fair CLR 74.5 60.8 63% 29.82 0.0
16 17:55 W 7 10.00 Fair CLR 75.6 60.1 59% 78 29.82 0.0
16 17:35 W 7 10.00 Fair CLR 75.4 60.1 59% 78 29.83 0.0
16 17:15 W 6 10.00 Fair CLR 76.1 59.9 57% 78 29.83 0.0
16 16:55 W 6 10.00 Fair CLR 76.8 58.8 54% 79 29.82 0.0
16 16:35 W 7 10.00 Fair CLR 75.7 59 56% 78 29.82 0.0
16 16:15 W 9 10.00 Fair CLR 76.5 57.4 52% 78 29.82 0.0
16 15:55 W 8 10.00 Fair CLR 76.8 58.3 53% 79 29.82 0.0
16 15:35 N 6 10.00 Fair CLR 75.6 60.6 60% 78 29.82 0.0
16 15:15 NW 7 10.00 Partly Cloudy SCT018 75 62.4 65% 77 29.81 0.0
16 14:55 NW 9 10.00 Partly Cloudy SCT018 75.6 62.1 63% 78 29.8 0.0
16 14:35 N 8 10.00 Partly Cloudy SCT018 74.5 61.5 64% 29.8 0.0
16 14:15 NW 7 10.00 Partly Cloudy SCT018 75.2 62.2 64% 77 29.8 0.0
16 13:55 NW 9 10.00 Partly Cloudy SCT018 75.2 62.1 75.2 68.4 64% 77 29.8 0.0
16 13:35 N 7 10.00 Partly Cloudy SCT020 74.8 61.7 64% 29.8 0.0
16 13:15 N 7 10.00 Fair CLR 73.8 60.3 63% 29.8 0.0
16 12:55 N 8 10.00 Fair CLR 74.7 60.6 62% 29.8 0.0
16 12:35 NW 6 10.00 Partly Cloudy SCT016 74.1 61 64% 29.8 0.0
16 12:15 NW 9 10.00 Partly Cloudy SCT016 73 61.5 67% 29.8 0.0
16 11:55 N 3 10.00 Partly Cloudy SCT016 72.5 61.5 69% 29.78 0.0
Date Time (edt) Wind (mph) Vis. (mi.) Weather Sky Cond. Air Dwpt Max. Min. Relative Humidity Wind Chill (°F) Heat Index (°F) altimeter (in) sea level (mb) 1 hr 3 hr 6 hr
6 hour
Temperature (ºF) Pressure Precipitation (in)